sat.trackr.live / text

‹ back to catalog

STARLINK-35835

NORAD 66569 · 2025-268N

PAYLOAD ACTIVE UNKNOWN

§ Identity

Operator
Country
US
Launch date
2025-11-21
Launch site
AFETR
Launch vehicle
Mass (kg)
RCS (m²)

Purposes: comms

External: N2YO · Heavens-Above · Gunter

§ Orbital elements

Epoch: 2026-09-20T11:19:14.944800Z

Period
94.27 min
Inclination
43.0042°
Eccentricity
0.0000651
Mean motion
15.27583583 rev/d
Perigee alt
482.6 km
Apogee alt
483.5 km
Semi-major
6,861.2 km
B*
3.9075e-4
RAAN
326.6464°
Arg perigee
262.3837°
Mean anomaly
97.6941°
Rev number
4,775

§ Raw data

STARLINK-358351 66569U 25268N   26263.47170075  .00010507  00000+0  39075-3 0  99942 66569  43.0042 326.6464 0000651 262.3837  97.6941 15.27583583 47757

JSON: /api/v1/satellites/66569 · /tle

For live sub-satellite position, see the globe view (requires WebGL).

§ Visibility from observer

Set your observer location to see the next 7 days of passes ≥ 10°. The values pass through the URL so the page stays shareable.

No JS? Fill the form by hand. The geolocation button needs JavaScript.